FW6667 Weather Reports


time (UTC)temp
F
wind
direction
speed
knots
gust
knots
rain 1hr
in
rain 24hr
in
rain mn
in
humidity
%
barometer
mb
20260507210016 60 169 0.0 0.0 0.00 0.02 0.02 84 1018.0
20260507205023 60 169 0.0 0.0 0.00 0.02 0.02 85 1017.9
20260507204015 60 170 0.0 0.0 0.00 0.02 0.02 86 1017.9
20260507203016 60 170 0.0 0.9 0.00 0.02 0.02 85 1017.9
20260507201034 60 170 0.9 0.9 0.00 0.02 0.02 84 1017.9
20260507195014 60 170 0.0 0.0 0.00 0.02 0.02 85 1017.9
20260507192012 60 170 0.0 0.0 0.00 0.02 0.02 82 1017.3
20260507191013 61 169 0.0 0.0 0.00 0.02 0.02 80 1017.3
20260507190011 63 169 0.0 0.9 0.00 0.02 0.02 76 1017.3
20260507185027 62 170 0.0 0.9 0.00 0.02 0.02 75 1017.1
20260507184012 62 169 0.9 0.9 0.00 0.02 0.02 78 1017.0
20260507183020 63 168 0.0 0.0 0.00 0.02 0.02 79 1016.9
20260507181013 65 169 0.0 0.9 0.00 0.02 0.02 70 1017.1
20260507180014 65 170 0.0 1.7 0.00 0.02 0.02 68 1017.3
20260507175014 65 172 0.9 1.7 0.00 0.02 0.02 69 1016.9
20260507174015 65 170 0.9 1.7 0.00 0.02 0.02 69 1017.0
20260507173015 66 174 0.9 1.7 0.00 0.02 0.02 67 1016.9
20260507172015 66 174 0.0 0.9 0.00 0.02 0.02 66 1016.9
20260507171016 66 173 0.0 1.7 0.00 0.02 0.02 65 1016.9
20260507170025 67 175 0.9 1.7 0.00 0.02 0.02 65 1017.0
20260507165015 67 179 0.9 1.7 0.00 0.02 0.02 64 1016.9
20260507164012 67 173 0.9 1.7 0.00 0.02 0.02 63 1016.6
20260507162012 67 188 1.7 2.6 0.00 0.02 0.02 61 1016.6
20260507161013 68 208 1.7 5.2 0.00 0.02 0.02 61 1016.6
20260507160013 68 181 1.7 4.3 0.00 0.02 0.02 60 1016.3
20260507153013 69 181 1.7 5.2 0.00 0.02 0.02 59 1016.6
20260507151015 70 200 2.6 5.2 0.00 0.02 0.02 56 1016.4
20260507150013 70 217 0.9 4.3 0.00 0.02 0.02 58 1016.3
20260507145014 70 194 2.6 5.2 0.00 0.02 0.02 56 1016.3
20260507143017 70 183 1.7 5.2 0.00 0.02 0.02 56 1016.3
20260507142015 71 185 0.9 7.0 0.00 0.02 0.02 56 1016.6
20260507141013 71 234 4.3 7.0 0.00 0.02 0.02 55 1016.6
20260507140013 71 193 2.6 5.2 0.00 0.02 0.02 57 1016.8
20260507135014 70 196 1.7 5.2 0.00 0.02 0.02 58 1016.6
20260507134012 70 197 3.5 5.2 0.00 0.02 0.02 59 1016.6
20260507133022 71 249 2.6 7.0 0.00 0.02 0.02 57 1016.6
20260507131018 70 197 4.3 7.0 0.00 0.02 0.02 59 1017.0
20260507130014 71 184 3.5 5.2 0.00 0.02 0.02 57 1017.1
20260507125019 70 201 1.7 6.1 0.00 0.02 0.02 55 1017.0
20260507124016 70 190 2.6 7.0 0.00 0.02 0.02 55 1017.3
20260507123013 70 209 5.2 7.0 0.00 0.02 0.02 56 1016.9
20260507122015 71 194 2.6 5.2 0.00 0.02 0.02 52 1017.3
20260507121014 71 183 5.2 6.1 0.00 0.02 0.02 51 1017.3
20260507120013 71 167 2.6 6.1 0.00 0.02 0.02 51 1017.3
20260507115013 70 158 3.5 7.0 0.00 0.02 0.02 52 1017.6
20260507114013 70 177 4.3 7.8 0.00 0.02 0.02 54 1017.3
20260507113015 69 199 3.5 7.8 0.00 0.02 0.02 54 1017.3
20260507112013 69 183 3.5 6.1 0.00 0.02 0.02 52 1017.3
20260507111013 69 215 1.7 6.1 0.00 0.02 0.02 54 1017.3
20260507105010 70 202 1.7 5.2 0.00 0.02 0.02 54 1017.3
20260507104014 71 188 2.6 5.2 0.00 0.02 0.02 54 1017.3
20260507103014 71 183 2.6 5.2 0.00 0.02 0.02 56 1017.4
20260507102012 70 181 1.7 2.6 0.00 0.02 0.02 57 1017.3
20260507101135 70 181 1.7 2.6 0.00 0.02 0.02 55 1017.6
20260507100017 70 173 0.9 5.2 0.00 0.02 0.02 59 1017.6
20260507095015 71 171 1.7 2.6 0.00 0.02 0.02 60 1017.6
20260507094012 70 177 1.7 4.3 0.00 0.02 0.02 62 1017.3
20260507092013 69 154 0.9 2.6 0.00 0.02 0.02 68 1017.9
20260507091011 68 147 0.9 2.6 0.00 0.02 0.02 71 1017.9
20260507090012 68 165 1.7 2.6 0.00 0.02 0.02 71 1017.7
20260507085013 68 149 0.9 1.7 0.00 0.02 0.02 68 1017.6
20260507084014 68 153 0.0 1.7 0.00 0.02 0.02 72 1017.8
20260507083130 68 147 0.9 1.7 0.00 0.02 0.02 71 1017.6
20260507082014 66 162 0.0 1.7 0.00 0.02 0.02 74 1017.9
20260507081013 66 158 0.0 2.6 0.00 0.02 0.02 76 1017.6
20260507075012 65 154 1.7 2.6 0.00 0.02 0.02 75 1017.6
20260507074033 65 151 1.7 2.6 0.00 0.02 0.02 78 1017.6
20260507073014 65 166 1.7 2.6 0.00 0.02 0.02 77 1017.6
20260507072013 65 157 0.9 2.6 0.00 0.02 0.02 78 1017.3
20260507071014 64 155 1.7 2.6 0.00 0.02 0.02 77 1017.6
20260507070014 64 166 1.7 1.7 0.00 0.02 0.02 80 1017.6
20260507065013 64 160 0.9 1.7 0.00 0.02 0.02 80 1017.3
20260507064013 63 164 0.9 2.6 0.00 0.02 0.02 79 1017.5
20260507063016 63 198 2.6 5.2 0.00 0.02 0.02 77 1017.3
20260507062014 63 177 1.7 2.6 0.00 0.02 0.02 80 1017.3
20260507061016 62 177 0.9 1.7 0.00 0.02 0.02 81 1017.3
20260507060030 62 172 0.0 0.9 0.00 0.02 0.02 84 1017.5
20260507055030 61 174 0.9 2.6 0.00 0.02 0.02 86 1017.3
20260507054029 60 161 1.7 1.7 0.01 0.02 0.02 86 1016.9
20260507053014 60 152 0.0 0.9 0.01 0.02 0.02 87 1016.6
20260507052013 60 161 0.9 1.7 0.01 0.02 0.02 85 1016.9
20260507051015 60 161 1.7 2.6 0.02 0.02 0.02 84 1016.9
20260507050012 60 152 0.0 2.6 0.02 0.02 0.02 85 1016.6
20260507045013 60 170 0.9 2.6 0.02 0.02 0.02 84 1016.9
20260507044024 60 156 0.9 1.7 0.01 0.01 0.01 84 1016.6
20260507043013 60 162 0.9 2.6 0.01 0.01 0.01 81 1016.5
20260507042012 60 170 0.9 1.7 0.01 0.01 0.01 83 1016.4
20260507041011 60 157 1.7 2.6 0.00 0.00 0.00 85 1016.3
20260507040014 59 158 0.0 0.0 0.00 0.00 0.00 93 1016.3
20260507035014 59 158 0.0 0.0 0.00 0.00 0.00 93 1016.3
20260507033013 59 158 0.0 0.0 0.00 0.00 0.00 93 1016.3
20260507032012 59 158 0.0 0.0 0.00 0.00 0.00 93 1015.9
20260507031012 60 157 0.0 0.0 0.00 0.00 0.00 91 1015.9
20260507025013 59 156 0.9 0.9 0.00 0.00 0.00 91 1015.9
20260507024012 59 160 0.0 0.0 0.00 0.00 0.00 90 1015.9
20260507023013 60 160 0.0 0.0 0.00 0.00 0.00 89 1015.9
20260507022014 60 160 0.0 0.0 0.00 0.00 0.00 89 1015.6
20260507020013 60 166 0.9 1.7 0.00 0.00 0.00 89 1015.4
20260507015016 60 165 0.0 0.0 0.00 0.00 0.00 87 1015.3
20260507014032 59 168 0.0 0.0 0.00 0.00 0.00 90 1015.4
20260507013013 59 169 0.0 0.0 0.00 0.00 0.00 90 1015.6
20260507012012 59 169 0.0 0.0 0.00 0.00 0.00 89 1015.5
20260507011013 59 169 0.0 0.9 0.00 0.00 0.00 89 1015.2
20260507010013 60 169 0.0 0.9 0.00 0.00 0.00 88 1015.2
20260507005018 60 169 0.0 0.9 0.00 0.00 0.00 87 1015.2
20260507004013 61 169 0.0 0.9 0.00 0.00 0.00 85 1015.2
20260507003013 62 169 0.0 0.0 0.00 0.00 0.00 83 1015.2
20260507002020 62 169 0.0 0.0 0.00 0.00 0.00 82 1015.2
20260507001011 62 169 0.0 0.9 0.00 0.00 0.00 82 1014.9
20260507000013 62 180 0.9 0.9 0.00 0.00 0.00 82 1015.2
20260506235012 62 166 0.0 0.0 0.00 0.00 0.00 81 1015.2
20260506234013 63 164 0.0 0.9 0.00 0.00 0.00 81 1015.2
20260506233014 63 174 0.0 1.7 0.00 0.00 0.00 80 1015.2
20260506232013 63 171 1.7 4.3 0.00 0.00 0.00 79 1015.0
20260506231015 63 174 0.9 2.6 0.00 0.00 0.00 79 1014.9
20260506230015 63 180 0.9 4.3 0.00 0.00 0.00 78 1015.0
20260506225013 64 173 0.9 1.7 0.00 0.00 0.00 77 1015.2
20260506224013 64 185 0.9 2.6 0.00 0.00 0.00 76 1014.9
20260506223016 64 190 0.9 1.7 0.00 0.00 0.00 75 1014.9
20260506222013 64 174 0.9 2.6 0.00 0.00 0.00 73 1015.0
20260506221012 64 172 0.9 1.7 0.00 0.00 0.00 72 1014.9
20260506220016 64 169 0.0 0.0 0.00 0.00 0.00 71 1014.9
20260506215014 64 169 0.0 0.9 0.00 0.00 0.00 70 1014.8
20260506213013 65 152 0.0 1.7 0.00 0.00 0.00 68 1014.6
20260506212012 66 159 0.9 1.7 0.00 0.00 0.00 65 1014.6
20260506211012 67 163 0.0 0.9 0.00 0.00 0.00 62 1014.5